Change the Weather History Date:

Monday, February 3, 2014

  Actual Average Record
Temperature  
Mean Temperature 16 °F -  
Max Temperature 19 °F 10 °F 45 °F (2003)
Min Temperature 14 °F 0 °F -50 °F (1999)
Degree Days  
Heating Degree Days 48    
Moisture  
Dew Point 10 °F    
Average Humidity 72    
Maximum Humidity 81    
Minimum Humidity 55    
Precipitation  
Precipitation 0.00 in - - ()
Sea Level Pressure  
Sea Level Pressure 30.64 in    
Wind  
Wind Speed 26 mph (ESE)    
Max Wind Speed 31 mph    
Max Gust Speed 43 mph    
Visibility 10 miles    
Events Snow    
Averages and records for this station are not official NWS values.
T = Trace of Precipitation, MM = Missing Value Source: NWS Daily Summary

Daily Weather History Graph

Daily Weather History Graph

Search for Another Location

Airport or City:

Trip Planner

Search our weather history database for the weather conditions in past years. The results will help you decide how hot, cold, wet, or windy it might be!

Date:

Astronomy

Feb. 03, 2014 Rise Set
Actual Time 9:15 AM AKST 4:39 PM AKST
Civil Twilight 8:19 AM AKST 5:34 PM AKST
Nautical Twilight 7:21 AM AKST 6:32 PM AKST
Astronomical Twilight 6:26 AM AKST 7:28 PM AKST
Moon 9:32 AM AKST (2/3) 11:44 PM AKST (2/3)
Length of Visible Light 9h 15m
Length of Day
7h 24m
Waxing Crescent, 21% of the Moon is Illuminated
Feb 3
Waxing Crescent
Feb 6
First Quarter
Feb 14
Full
Feb 22
Last Quarter
Feb 28
New

Hourly Weather History & Observations

Time (AKST) Temp. Windchill Dew Point Humidity Pressure Visibility Wind Dir Wind Speed Gust Speed Precip Events Conditions
12:53 AM 19.0 °F 2.4 °F 12.9 °F 77% 30.66 in 10.0 mi ESE 21.9 mph - N/A   Mostly Cloudy
1:53 AM 19.9 °F 3.2 °F 12.9 °F 74% 30.65 in 10.0 mi East 23.0 mph - N/A   Overcast
2:53 AM 19.9 °F 1.8 °F 12.9 °F 74% 30.64 in 10.0 mi ESE 27.6 mph 35.7 mph N/A   Overcast
3:53 AM 19.9 °F 1.5 °F 12.9 °F 74% 30.63 in 10.0 mi ESE 28.8 mph 42.6 mph N/A   Overcast
4:53 AM 19.0 °F 0.0 °F 12.9 °F 77% 30.62 in 10.0 mi ESE 29.9 mph - 0.00 in   Overcast
5:01 AM 18.0 °F 0.9 °F 12.9 °F 81% 30.51 in 10.0 mi ESE 21.9 mph 31.1 mph N/A   Mostly Cloudy
5:57 AM 18.0 °F -0.2 °F 12.9 °F 81% 30.52 in 10.0 mi ESE 25.3 mph 31.1 mph 0.00 in   Overcast
5:59 AM 18.0 °F -0.2 °F 12.9 °F 81% 30.52 in 10.0 mi East 25.3 mph 31.1 mph 0.00 in Snow Light Snow
6:53 AM 18.0 °F -1.1 °F 12.0 °F 78% 30.63 in 9.0 mi East 28.8 mph 39.1 mph 0.00 in Snow Light Snow
7:53 AM 17.1 °F -1.4 °F 12.0 °F 81% 30.64 in 9.0 mi East 25.3 mph 34.5 mph 0.00 in Snow Light Snow
8:53 AM 17.1 °F -1.7 °F 10.9 °F 77% 30.64 in 10.0 mi East 26.5 mph 34.5 mph 0.00 in   Scattered Clouds
9:53 AM 16.0 °F -2.8 °F 10.0 °F 77% 30.63 in 10.0 mi ESE 25.3 mph 38.0 mph N/A   Scattered Clouds
10:53 AM 17.1 °F -2.4 °F 10.0 °F 74% 30.63 in 10.0 mi ESE 28.8 mph 38.0 mph N/A   Scattered Clouds
11:53 AM 17.1 °F -2.0 °F 9.0 °F 71% 30.63 in 10.0 mi ESE 27.6 mph 38.0 mph 0.00 in   Scattered Clouds
12:53 PM 17.1 °F -2.0 °F 9.0 °F 71% 30.63 in 10.0 mi East 27.6 mph 35.7 mph 0.00 in   Scattered Clouds
1:53 PM 17.1 °F -2.7 °F 9.0 °F 71% 30.63 in 10.0 mi ESE 29.9 mph 35.7 mph N/A   Scattered Clouds
2:53 PM 17.1 °F -1.4 °F 9.0 °F 71% 30.64 in 10.0 mi ESE 25.3 mph 39.1 mph 0.00 in Snow Light Snow
3:53 PM 17.1 °F -1.4 °F 8.1 °F 68% 30.64 in 10.0 mi ESE 25.3 mph 34.5 mph 0.00 in   Scattered Clouds
4:53 PM 16.0 °F -3.2 °F 8.1 °F 71% 30.65 in 10.0 mi ESE 26.5 mph 34.5 mph N/A   Scattered Clouds
5:53 PM 15.1 °F -4.0 °F 7.0 °F 70% 30.66 in 10.0 mi ESE 25.3 mph 36.8 mph N/A   Scattered Clouds
6:53 PM 15.1 °F -5.7 °F 7.0 °F 70% 30.67 in 10.0 mi ESE 31.1 mph 41.4 mph N/A   Scattered Clouds
7:53 PM 14.0 °F -4.3 °F 6.1 °F 71% 30.69 in 10.0 mi East 21.9 mph 33.4 mph N/A   Scattered Clouds
8:53 PM 15.1 °F -3.7 °F 6.1 °F 68% 30.70 in 10.0 mi ESE 24.2 mph 40.3 mph N/A   Scattered Clouds
9:53 PM 14.0 °F -5.1 °F 6.1 °F 71% 30.71 in 10.0 mi ESE 24.2 mph 36.8 mph N/A   Clear
10:53 PM 14.0 °F -5.1 °F 6.1 °F 71% 30.71 in 10.0 mi East 24.2 mph 35.7 mph N/A   Clear
11:53 PM 14.0 °F -6.8 °F 5.0 °F 67% 30.72 in 10.0 mi ESE 29.9 mph 39.1 mph N/A   Clear